TimeEST,TemperatureF,Dew PointF,Humidity,Sea Level PressureIn,VisibilityMPH,Wind Direction,Wind SpeedMPH,Gust SpeedMPH,PrecipitationIn,Events,Conditions,WindDirDegrees,DateUTC
12:55 AM,26.8,24.4,91,30.18,9.0,SSW,3.5,-,N/A,,Clear,210,2012-11-05 05:55:00
12:58 AM,28.4,24.8,86,30.18,7.0,Calm,Calm,-,N/A,,Clear,0,2012-11-05 05:58:00
1:01 AM,28.4,26.6,93,30.18,7.0,Calm,Calm,-,N/A,,Clear,0,2012-11-05 06:01:00
1:22 AM,28.4,26.6,93,30.18,9.0,Calm,Calm,-,N/A,,Clear,0,2012-11-05 06:22:00
1:55 AM,28.6,26.2,91,30.18,10.0,Calm,Calm,-,N/A,,Clear,0,2012-11-05 06:55:00
2:55 AM,27.9,25.0,89,30.19,9.0,Calm,Calm,-,N/A,Fog,Shallow Fog,0,2012-11-05 07:55:00
3:37 AM,26.6,24.8,93,30.19,3.0,Calm,Calm,-,N/A,,Clear,0,2012-11-05 08:37:00
3:55 AM,26.1,24.3,93,30.20,4.0,Calm,Calm,-,N/A,,Clear,0,2012-11-05 08:55:00
4:55 AM,26.2,24.8,94,30.20,5.0,Calm,Calm,-,N/A,,Clear,0,2012-11-05 09:55:00
5:55 AM,25.7,23.7,92,30.19,6.0,Calm,Calm,-,N/A,,Clear,0,2012-11-05 10:55:00
6:55 AM,25.2,21.9,87,30.20,3.0,Calm,Calm,-,N/A,,Clear,0,2012-11-05 11:55:00
7:55 AM,25.5,23.0,90,30.22,6.0,Calm,Calm,-,N/A,,Clear,0,2012-11-05 12:55:00
8:55 AM,30.0,27.3,90,30.21,7.0,NNE,3.5,-,N/A,,Clear,20,2012-11-05 13:55:00
9:55 AM,35.1,28.4,77,30.21,10.0,Calm,Calm,-,N/A,,Partly Cloudy,0,2012-11-05 14:55:00
10:55 AM,39.4,27.3,62,30.22,10.0,Variable,3.5,-,N/A,,Partly Cloudy,0,2012-11-05 15:55:00
11:55 AM,41.9,27.1,56,30.20,10.0,Calm,Calm,-,N/A,,Partly Cloudy,0,2012-11-05 16:55:00
12:55 PM,43.3,26.8,52,30.17,10.0,Calm,Calm,-,N/A,,Partly Cloudy,0,2012-11-05 17:55:00
1:55 PM,45.5,26.2,47,30.15,10.0,East,3.5,-,N/A,,Partly Cloudy,80,2012-11-05 18:55:00
2:55 PM,46.2,25.9,45,30.14,10.0,Calm,Calm,-,N/A,,Partly Cloudy,0,2012-11-05 19:55:00
3:55 PM,46.2,25.7,45,30.13,10.0,East,3.5,-,N/A,,Partly Cloudy,90,2012-11-05 20:55:00
4:55 PM,44.1,25.5,48,30.13,10.0,ENE,4.6,-,N/A,,Partly Cloudy,60,2012-11-05 21:55:00
5:55 PM,40.1,25.5,56,30.14,10.0,ENE,4.6,-,N/A,,Partly Cloudy,60,2012-11-05 22:55:00
6:55 PM,34.5,24.6,67,30.16,10.0,NE,3.5,-,N/A,,Clear,50,2012-11-05 23:55:00
7:55 PM,36.5,24.6,62,30.16,10.0,Calm,Calm,-,N/A,,Clear,0,2012-11-06 00:55:00
8:55 PM,34.5,26.8,73,30.17,10.0,Calm,Calm,-,N/A,,Clear,0,2012-11-06 01:55:00
9:55 PM,33.8,26.1,73,30.17,10.0,ENE,6.9,-,N/A,,Clear,60,2012-11-06 02:55:00
10:55 PM,32.2,25.3,76,30.15,10.0,NE,3.5,-,N/A,,Clear,50,2012-11-06 03:55:00
11:55 PM,33.1,25.3,73,30.14,10.0,Calm,Calm,-,N/A,,Clear,0,2012-11-06 04:55:00